2019-025C (44224 NORAD) Tracking and Keplerian Element Data

This shows tracking and keplerian element data for the satellite.

Feedback or suggestion? Click here.




ElementValue
Catalog44224
Name2019-025C
Epoch Orbit101
Epoch Day130.55739073
Epoch Year2019
RAAN185.8249
Inclination51.6328
Eccentricity0.0015314
Argument of Perigee75.0423
Mean Anonmoly286.3853
Mean Motion16.48763339
Decay Rate0.42319615
L11 44224U 19025C 19130.55739073 .42319615 12704-4 49549-3 0 9999
L22 44224 51.6328 185.8249 0015314 75.0423 286.3853 16.48763339 1012

Live tracking and technical data element details for 2019-025C (NORAD 44224). 2019-025C can be tracked NOW for your location showing map with azimuth and elevation plus other details from your city location.

Track the satellite on the map from your city or location and see movement details for azimuth, elevation, latitude, longitude, range, height, and movement on the map or in text.







IsCatalogInMostPopularTable: catalog: 44224, numindb: 16
Update: records affected: 1



GetName: 44224 2019-025C

Hit Count: updated at: Sun, 21 Jul 2019 15:17:27 GMT